Погода в Ерлине

Россия / Рязанская область     53°54′38″N   39°43′58″E
темп.,
°C
ветер,
м/с
пор.,
м/с
влажн.,
%
обл.,
%
осадки,
мм/ч
давл.,
гПа
погр.,
м
27 сентября, пн
пн2700:00+9ссв7129299 0.4 1010659
03:00+9с6109288 0.5 1013552
06:00+9с61294100 0.1 1015568
09:00+10с7107922 0.3 1016728
12:00+9с6985100 0.1 1018612
15:00+10с5982100 0.1 1019757
18:00+9с61186100 0.2 1019622
21:00+9ссв61088100 0.3 1020675
28 сентября, вт
вт2800:00+8св6989100 0.6 1021962
03:00+6св6888100 0.6 1023917
06:00+5св5892100 0.1 1025862
09:00+6св6887100 0.1 1026909
12:00+6всв6875100 0.0 10281071
15:00+8св576197 0.1 10291268
18:00+6ссв486834 0.0 1030148
21:00+4ссв38758 0.0 1032150
29 сентября, ср
ср2900:00+3ссв34790 0.0 103367
03:00+2ссв34820 0.0 103357
06:00+1с358647 0.0 103479
09:00+6ссв466836 0.0 1034341
12:00+9ссв345029 0.0 1034938
15:00+11ссв44455 0.0 10331261
18:00+7с22605 0.0 103320
21:00+5ссв22695 0.0 103414
30 сентября, чт
чт3000:00+4с22755 0.0 103510
03:00+4с22795 0.0 103511
06:00+3с22845 0.0 103612
09:00+7ссв226833 0.0 1036207
12:00+11вюв115434 0.0 1036619
15:00+12ююв11455 0.0 10351442
18:00+9юз11585 0.0 103510
21:00+7з12645 0.0 103610
1 октября, пт
пт100:00+6з22705 0.0 103616
03:00+6з33745 0.0 103732
06:00+5зсз22775 0.0 103722
09:00+9зсз23635 0.0 1037216
12:00+12з22515 0.0 1036862
15:00+13зюз22495 0.0 10361110
18:00+10зюз22633 0.0 103512
21:00+8зюз22670 0.0 103614